{"data":{"norad_id":48973,"intl_designator":"2021-060G","name":"ONEWEB-0255","alt_names":[],"object_type":"PAYLOAD","status":"ACTIVE","operator":null,"country":"UK","launch_date":"2021-07-01","launch_site_code":"VOSTO","launch_vehicle":null,"mission":null,"orbit_class":"UNKNOWN","rcs_meters":null,"size_class":null,"mass_kg":null,"dimensions":null,"purposes":["comms"],"wikipedia_slug":null,"has_3d_model":false,"image_url":null,"decayed_at":null,"tle_current":{"epoch":"2026-05-24T22:35:11.629248Z","epoch_age_seconds":90259,"freshness":"FRESH","line1":"1 48973U 21060G   26144.94110682 -.00000024  00000+0 -96075-4 0  9996","line2":"2 48973  87.9107 233.3954 0001825  98.9074 261.2263 13.16593661236607","mean_motion":13.16593661,"eccentricity":0.0001825,"inclination_deg":87.9107,"raan_deg":233.3954,"arg_perigee_deg":98.9074,"mean_anomaly_deg":261.2263,"bstar":-9.6075e-5,"rev_number":23660,"period_min":109.37315305819,"perigee_km":1196.3763524027,"apogee_km":1199.1415544257,"semimajor_km":7575.8959534142,"source":"CELESTRAK","updated_at":"2026-05-25T13:38:22.450744Z"}}}